Change the Weather History Date:

Wednesday, February 19, 2014

  Actual Average (KHRO) Record (KHRO)
Temperature  
Mean Temperature 50 °F 41 °F  
Max Temperature 60 °F 52 °F 72 °F (1981)
Min Temperature 41 °F 31 °F 2 °F (1903)
Degree Days  
Heating Degree Days 14 24  
Month to date heating degree days 486  
Since 1 July heating degree days 2972  
Cooling Degree Days 0 0  
Month to date cooling degree days 0  
Year to date cooling degree days 0  
Moisture  
Dew Point 29 °F    
Average Humidity 42    
Maximum Humidity 63    
Minimum Humidity 21    
Precipitation  
Precipitation 0.00 in 0.10 in 1.95 in (1911)
Month to date precipitation 1.73  
Year to date precipitation 4.29  
Snow  
Snow 0.00 in 0.10 in 8.00 in (1902)
Month to date snowfall 2.3  
Since 1 July snowfall 8.3  
Snow Depth -    
Sea Level Pressure  
Sea Level Pressure 29.90 in    
Wind  
Wind Speed 9 mph (ESE)    
Max Wind Speed 20 mph    
Max Gust Speed 30 mph    
Visibility 10 miles    
Events      
T = Trace of Precipitation, MM = Missing Value Source: NWS Daily Summary

Daily Weather History Graph

Daily Weather History Graph

Search for Another Location

Airport or City:

Trip Planner

Search our weather history database for the weather conditions in past years. The results will help you decide how hot, cold, wet, or windy it might be!

Date:

Astronomy

Feb. 19, 2014 Rise Set
Actual Time 6:57 AM CST 5:58 PM CST
Civil Twilight 6:30 AM CST 6:24 PM CST
Nautical Twilight 6:00 AM CST 6:54 PM CST
Astronomical Twilight 5:30 AM CST 7:24 PM CST
Moon 10:43 PM CST 9:11 AM CST
Length of Visible Light 11h 53m
Length of Day
11h 01m
Waning Gibbous, 79% of the Moon is Illuminated
Feb 19
Waning Gibbous
Feb 22
Last Quarter
Mar 1
New
Mar 8
First Quarter
Mar 16
Full

Hourly Weather History & Observations

Time (CST) Temp. Windchill Dew Point Humidity Pressure Visibility Wind Dir Wind Speed Gust Speed Precip Events Conditions
12:15 AM 55.4 °F - 35.6 °F 47% 29.94 in 10.0 mi NNW 11.5 mph 19.6 mph N/A   Partly Cloudy
12:35 AM 53.6 °F - 32.0 °F 44% 29.95 in 10.0 mi NW 13.8 mph 23.0 mph N/A   Partly Cloudy
12:55 AM 53.6 °F - 28.4 °F 38% 29.96 in 10.0 mi NNW 11.5 mph 18.4 mph N/A   Partly Cloudy
1:15 AM 50.0 °F - 28.4 °F 43% 29.97 in 10.0 mi North 13.8 mph 19.6 mph N/A   Partly Cloudy
1:35 AM 50.0 °F - 28.4 °F 43% 29.98 in 10.0 mi North 9.2 mph 18.4 mph N/A   Scattered Clouds
1:55 AM 50.0 °F - 28.4 °F 43% 29.99 in 10.0 mi North 9.2 mph - N/A   Mostly Cloudy
2:15 AM 48.2 °F - 28.4 °F 46% 29.98 in 10.0 mi North 8.1 mph 16.1 mph N/A   Mostly Cloudy
2:35 AM 48.2 °F - 28.4 °F 46% 29.95 in 10.0 mi NE 5.8 mph - N/A   Scattered Clouds
2:55 AM 46.4 °F 43.5 °F 28.4 °F 50% 29.97 in 10.0 mi North 5.8 mph - N/A   Partly Cloudy
3:15 AM 46.4 °F 45.2 °F 28.4 °F 50% 29.98 in 10.0 mi North 3.5 mph - N/A   Clear
3:35 AM 46.4 °F 45.2 °F 28.4 °F 50% 29.97 in 10.0 mi NE 3.5 mph - N/A   Clear
3:55 AM 44.6 °F - 28.4 °F 53% 29.97 in 10.0 mi Calm Calm - N/A   Clear
4:15 AM 44.6 °F 43.1 °F 28.4 °F 53% 29.98 in 10.0 mi South 3.5 mph - N/A   Clear
4:35 AM 44.6 °F - 28.4 °F 53% 29.98 in 10.0 mi Calm Calm - N/A   Clear
4:55 AM 44.6 °F - 28.4 °F 53% 29.99 in 10.0 mi Calm Calm - N/A   Clear
5:15 AM 41.0 °F 38.0 °F 28.4 °F 61% 30.01 in 10.0 mi SSW 4.6 mph - N/A   Clear
5:35 AM 42.8 °F - 28.4 °F 57% 30.02 in 10.0 mi Calm Calm - N/A   Clear
5:55 AM 44.6 °F - 28.4 °F 53% 30.02 in 10.0 mi Calm Calm - N/A   Clear
6:15 AM 42.8 °F - 28.4 °F 57% 30.03 in 10.0 mi Calm Calm - N/A   Clear
6:35 AM 41.0 °F - 28.4 °F 61% 30.03 in 10.0 mi Calm Calm - N/A   Clear
6:55 AM 41.0 °F - 28.4 °F 61% 30.02 in 10.0 mi Calm Calm - N/A   Clear
7:15 AM 41.0 °F - 28.4 °F 61% 30.02 in 10.0 mi Calm Calm - N/A   Clear
7:35 AM 42.8 °F - 28.4 °F 57% 30.01 in 10.0 mi Calm Calm - N/A   Clear
7:55 AM 42.8 °F - 28.4 °F 57% 30.02 in 10.0 mi Calm Calm - N/A   Clear
8:15 AM 44.6 °F - 32.0 °F 61% 30.02 in 10.0 mi Calm Calm - N/A   Clear
8:35 AM 46.4 °F - 32.0 °F 57% 30.02 in 10.0 mi Calm Calm - N/A   Clear
8:55 AM 48.2 °F - 28.4 °F 46% 30.03 in 10.0 mi Calm Calm - N/A   Clear
9:15 AM 50.0 °F - 28.4 °F 43% 30.02 in 10.0 mi ESE 5.8 mph - N/A   Clear
9:35 AM 50.0 °F - 26.6 °F 40% 30.03 in 10.0 mi ESE 6.9 mph - N/A   Clear
9:55 AM 53.6 °F - 28.4 °F 38% 30.03 in 10.0 mi ESE 6.9 mph - N/A   Clear
10:15 AM 53.6 °F - 26.6 °F 35% 30.03 in 10.0 mi ESE 10.4 mph - N/A   Clear
10:35 AM 53.6 °F - 26.6 °F 35% 30.03 in 10.0 mi SE 9.2 mph - N/A   Clear
10:55 AM 55.4 °F - 24.8 °F 31% 30.02 in 10.0 mi East 3.5 mph - N/A   Clear
11:15 AM 55.4 °F - 24.8 °F 31% 30.01 in 10.0 mi ENE 8.1 mph - N/A   Clear
11:35 AM 55.4 °F - 24.8 °F 31% 30.00 in 10.0 mi SE 11.5 mph 17.3 mph N/A   Clear
11:55 AM 55.4 °F - 24.8 °F 31% 29.99 in 10.0 mi East 8.1 mph - N/A   Clear
12:15 PM 55.4 °F - 24.8 °F 31% 29.97 in 10.0 mi ESE 15.0 mph 20.7 mph N/A   Clear
12:35 PM 55.4 °F - 24.8 °F 31% 29.94 in 10.0 mi ESE 16.1 mph 21.9 mph N/A   Clear
12:55 PM 57.2 °F - 23.0 °F 27% 29.91 in 10.0 mi ESE 19.6 mph 29.9 mph N/A   Clear
1:15 PM 57.2 °F - 17.6 °F 21% 29.89 in 10.0 mi ESE 17.3 mph 26.5 mph N/A   Clear
1:35 PM 59.0 °F - 19.4 °F 22% 29.88 in 10.0 mi SE 16.1 mph 26.5 mph N/A   Clear
1:55 PM 59.0 °F - 23.0 °F 25% 29.88 in 10.0 mi ESE 13.8 mph 21.9 mph N/A   Clear
2:15 PM 59.0 °F - 24.8 °F 27% 29.88 in 10.0 mi SE 15.0 mph 23.0 mph N/A   Clear
2:35 PM 60.8 °F - 24.8 °F 25% 29.87 in 10.0 mi SE 13.8 mph 18.4 mph N/A   Clear
2:55 PM 60.8 °F - 24.8 °F 25% 29.86 in 10.0 mi SE 12.7 mph 19.6 mph N/A   Clear
3:15 PM 60.8 °F - 26.6 °F 27% 29.85 in 10.0 mi SE 11.5 mph 20.7 mph N/A   Clear
3:35 PM 60.8 °F - 28.4 °F 29% 29.84 in 10.0 mi ESE 10.4 mph 17.3 mph N/A   Clear
3:55 PM 60.8 °F - 28.4 °F 29% 29.83 in 10.0 mi ESE 8.1 mph - N/A   Clear
4:15 PM 60.8 °F - 26.6 °F 27% 29.82 in 10.0 mi ESE 12.7 mph 19.6 mph N/A   Clear
4:35 PM 59.0 °F - 26.6 °F 29% 29.81 in 10.0 mi ESE 16.1 mph 20.7 mph N/A   Clear
4:55 PM 59.0 °F - 26.6 °F 29% 29.80 in 10.0 mi ESE 13.8 mph 18.4 mph N/A   Mostly Cloudy
5:15 PM 59.0 °F - 26.6 °F 29% 29.80 in 10.0 mi ESE 11.5 mph - N/A   Overcast
5:35 PM 59.0 °F - 28.4 °F 31% 29.79 in 10.0 mi ESE 15.0 mph 18.4 mph N/A   Overcast
5:55 PM 59.0 °F - 28.4 °F 31% 29.78 in 10.0 mi ESE 16.1 mph 19.6 mph N/A   Overcast
6:15 PM 59.0 °F - 30.2 °F 34% 29.78 in 10.0 mi ESE 12.7 mph 21.9 mph N/A   Overcast
6:35 PM 59.0 °F - 32.0 °F 36% 29.77 in 10.0 mi ESE 12.7 mph 24.2 mph N/A   Overcast
6:55 PM 57.2 °F - 33.8 °F 41% 29.76 in 10.0 mi ESE 13.8 mph 23.0 mph N/A   Overcast
7:15 PM 57.2 °F - 33.8 °F 41% 29.77 in 10.0 mi ESE 12.7 mph 23.0 mph N/A   Overcast
7:35 PM 57.2 °F - 32.0 °F 38% 29.76 in 10.0 mi ESE 18.4 mph 26.5 mph N/A   Overcast
7:55 PM 57.2 °F - 32.0 °F 38% 29.75 in 10.0 mi SE 17.3 mph 28.8 mph N/A   Overcast
8:15 PM 57.2 °F - 33.8 °F 41% 29.74 in 10.0 mi SE 16.1 mph 28.8 mph N/A   Overcast
8:35 PM 57.2 °F - 35.6 °F 44% 29.74 in 10.0 mi SE 16.1 mph 27.6 mph N/A   Overcast
8:55 PM 57.2 °F - 35.6 °F 44% 29.74 in 10.0 mi ESE 17.3 mph 29.9 mph N/A   Overcast
9:15 PM 57.2 °F - 37.4 °F 48% 29.74 in 10.0 mi SE 15.0 mph 26.5 mph N/A   Overcast
9:35 PM 55.4 °F - 37.4 °F 51% 29.73 in 10.0 mi ESE 12.7 mph 21.9 mph N/A   Overcast
9:55 PM 55.4 °F - 39.2 °F 54% 29.73 in 10.0 mi ESE 18.4 mph 24.2 mph N/A   Overcast
10:35 PM 55.4 °F - 39.2 °F 54% 29.71 in 10.0 mi ESE 16.1 mph 24.2 mph N/A   Overcast
10:55 PM 55.4 °F - 41.0 °F 58% 29.70 in 10.0 mi ESE 15.0 mph 24.2 mph N/A   Overcast
11:15 PM 55.4 °F - 41.0 °F 58% 29.68 in 10.0 mi ESE 17.3 mph 23.0 mph N/A   Overcast
11:35 PM 55.4 °F - 41.0 °F 58% 29.67 in 10.0 mi ESE 18.4 mph 23.0 mph N/A   Overcast
11:55 PM 55.4 °F - 42.8 °F 63% 29.67 in 10.0 mi ESE 12.7 mph 21.9 mph N/A   Mostly Cloudy